Regional Weather Roundup
Issued by NWS

Home | Current Version | Previous Version | Graphics & Text | Print | Product List | Glossary On
Versions: 1 2 3 4 5 6 7 8 9 10 11 12 13 14 15 16 17 18 19 20 21 22 23 24 25 26 27 28 29 30 31 32 33 34 35 36 37 38 39 40 41 42 43 44 45 46 47 48 49 50
000
ASUS44 KMEG 272210
RWRTN
TENNESSEE HOURLY STATE WEATHER ROUNDUP
NATIONAL WEATHER SERVICE MEMPHIS TN
500 PM CDT SUN JUL 27 2014

TNZ002-004-019-021-049-052-054-088>092-272300-
WEST TENNESSEE

CITY           SKY/WX    TMP DP  RH WIND       PRES   REMARKS
MEMPHIS INTL   PTSUNNY   91  76  61 SW9       29.93F HX 103
NWS MEMPHIS      N/A     91 N/A N/A MISG        N/A
JACKSON        CLOUDY    89  76  65 W12       29.91F HX 100
DYERSBURG      PTSUNNY   90  72  55 W12G20    29.90S HX  96
UNION CITY     SUNNY     90  79  70 W9        29.87S HX 105
PARIS          PTSUNNY   87  76  69 W12       29.89F HX  97
LEXINGTON      MOSUNNY   90  75  62 SW12      29.90S HX 100
SAVANNAH       PTSUNNY   89  78  70 SW13      29.92F HX 102
$$

TNZ008-025-027-028-033-062-065-066-272300-
NORTH MIDDLE TENNESSEE

CITY           SKY/WX    TMP DP  RH WIND       PRES   REMARKS
NASHVILLE      PTSUNNY   92  75  57 SW14G24   29.84F HX 103
DICKSON        MOSUNNY   90  75  62 W12       29.88F HX 100
PORTLAND       MOSUNNY   91  73  55 W13G29    29.82F HX 100
CLARKSVILLE    PTSUNNY   91  74  57 W15G25    29.84F HX 100
LEBANON        MOSUNNY   93  74  54 SW18      29.82F HX 102
SMYRNA         MOSUNNY   95  77  55 W12       29.85F HX 109
COOKEVILLE     MOSUNNY   91  75  59 W15       29.86S HX 102
LIVINGSTON       N/A     85  72  65 SW16      29.84F HX  91
GALLATIN       PTSUNNY   94  76  55 SW13      29.83F HX 106
CROSSVILLE     MOSUNNY   85  71  63 SW9G22    29.92F HX  90
$$

TNZ061-075-076-078-094-096-097-272300-
SOUTH MIDDLE TENNESSEE

CITY           SKY/WX    TMP DP  RH WIND       PRES   REMARKS
LEWISBURG      MOSUNNY   92  74  55 SW14      29.89F HX 101
FAYETTEVILLE   SUNNY     88  72  58 W14       29.93F HX  94
TULLAHOMA      SUNNY     90  72  55 SW16      29.93S HX  96
WINCHESTER     MOSUNNY   90  73  58 W10       29.92F HX  98
MCMINNVILLE      N/A     90  77  66 SW14      29.88F HX 102
COLUMBIA       SUNNY     91  77  62 SW15      29.88F HX 105
SHELBYVILLE    MOSUNNY   91  75  59 SW13      29.90F HX 102
$$

TNZ017-018-042-046-047-272300-
NORTHEAST TENNESSEE

CITY           SKY/WX    TMP DP  RH WIND       PRES   REMARKS
TRI CITIES     HAIL      72  71  97 N14G29    29.96R VSB 1/4
ELIZABETHTON   LGT RAIN  73  72  94 CALM      29.93R
$$

TNZ012-013-036-069-073-074-272300-
CENTRAL EAST TENNESSEE

CITY           SKY/WX    TMP DP  RH WIND       PRES   REMARKS
KNOXVILLE      PTSUNNY   88  69  53 SW22G30   29.83F HX  92
OAK RIDGE      MOSUNNY   89  70  53 SW8G17    29.86S HX  94
GATLINBURG     CLEAR     84  70  61 SW8       29.83F
MORRISTOWN     CLEAR     81  72  74 SW6       29.87S
$$

TNZ083-085-099-272300-
SOUTHEAST TENNESSEE

CITY           SKY/WX    TMP DP  RH WIND       PRES   REMARKS
CHATTANOOGA    MOSUNNY   93  68  43 SW18G29   29.89F HX  97
$$

SKY/WX REPORTED AS FAIR MEANS FEW OR NO CLOUDS BELOW
12 THOUSAND FEET.




USA.gov is the U.S. government's official web portal to all federal, state and local government web resources and services.